Regional Weather Roundup
Issued by NWS

Home | Current Version | Previous Version | Graphics & Text | Print | Product List | Glossary On
Versions: 1 2 3 4 5 6 7 8 9 10 11 12 13 14 15 16 17 18 19 20 21 22 23 24 25 26 27 28 29 30 31 32 33 34 35 36 37 38 39 40 41 42 43 44 45 46 47 48 49 50
000
ASUS43 KOAX 260910
RWRNE

WEATHER ROUNDUP FOR NEBRASKA
NATIONAL WEATHER SERVICE OMAHA NE
300 AM CST MON JAN 26 2015

NOTES: SATELLITE DATA IS BEING USED TO AUGMENT CLOUD COVER ABOVE
       12000 FEET.
       "FAIR" INDICATES FEW OR NO CLOUDS BELOW 12,000 FEET WITH NO
       SIGNIFICANT WEATHER AND/OR OBSTRUCTIONS TO VISIBILITY.

  * THESE STATIONS DO NOT REPORT WEATHER SUCH AS RAIN...SNOW OR FOG.

NEZ001>004-019>022-054>056-261000-
NEBRASKA PANHANDLE

CITY           SKY/WX    TMP DP  RH WIND       PRES   REMARKS
SCOTTSBLUFF    CLOUDY    37  31  78 NW9       30.12R WCI  30
ALLIANCE       MOCLDY    35  30  82 W10       30.06S WCI  27
CHADRON        MOCLDY    44  30  57 NW16      30.05S
KIMBALL        MOCLDY    44  29  57 NW17      30.13S
SIDNEY         MOCLDY    42  30  62 NW14      30.12S
$$

NEZ057>060-069>072-079>082-261000-
SOUTHWEST NEBRASKA

CITY           SKY/WX    TMP DP  RH WIND       PRES   REMARKS
NORTH PLATTE   CLEAR     33  29  85 W9        30.02R WCI  25
IMPERIAL       PTCLDY    41  30  65 W13       30.06S
LEXINGTON      CLEAR     33  28  81 W10       29.99S WCI  25
MCCOOK         CLEAR     39  30  70 W15       30.04R WCI  31
OGALLALA       PTCLDY    36  32  84 W8        30.06S WCI  30
$$

NEZ005>010-023>029-035>040-094-261000-
NORTH CENTRAL NEBRASKA

CITY           SKY/WX    TMP DP  RH WIND       PRES   REMARKS
VALENTINE      CLEAR     32  29  88 W8        29.95R WCI  25
AINSWORTH      CLEAR     39  32  76 W10       29.94R WCI  32
BROKEN BOW     CLEAR     43  32  65 NW14      29.96S
O`NEILL        CLEAR     36  32  85 SW8       29.90F WCI  29
ORD            CLEAR     25  22  88 CALM      29.94F
THEDFORD       CLEAR     41  33  72 W10       29.98S
$$

NEZ041-046>049-061>064-073>077-083>087-261000-
SOUTH CENTRAL NEBRASKA

CITY           SKY/WX    TMP DP  RH WIND       PRES   REMARKS
GRAND ISLAND   CLEAR     32  27  81 S9        29.98F WCI  24
AURORA         CLEAR     34  28  80 SW10      29.99F WCI  26
HASTINGS       CLEAR     31  25  78 S7        29.98F WCI  24
HEBRON         CLEAR     33  28  80 SW8       30.03F WCI  26
HOLDREGE       CLEAR     35  26  68 W8        29.98F WCI  29
KEARNEY *      CLEAR     34  25  69 SW12      29.98F WCI  25
YORK           PTCLDY    30  27  86 SW9       30.00F WCI  22
$$

NEZ011>018-030>034-042>045-261000-
NORTHEAST NEBRASKA

CITY           SKY/WX    TMP DP  RH WIND       PRES   REMARKS
NORFOLK        CLEAR     36  29  75 SW20      29.90F WCI  25
ALBION         PTCLDY    33  28  82 SW5       29.94F WCI  28
BLAIR          CLEAR     31  29  94 S9        29.97F WCI  23
COLUMBUS *     PTCLDY    34  25  69 SW10      29.97F WCI  26
FREMONT        CLEAR     33  30  89 S7        29.97F WCI  26
TEKAMAH        CLEAR     29  27  92 S8        29.97F WCI  21
WAYNE          CLEAR     32  30  91 SW10      29.91F WCI  24
$$

NEZ050>053-065>068-078-088>093-261000-
SOUTHEAST NEBRASKA

CITY           SKY/WX    TMP DP  RH WIND       PRES   REMARKS
LINCOLN        PTCLDY    31  28  89 S6        30.02F WCI  25
OMAHA EPPLEY   CLEAR     28  26  92 S9        30.00F WCI  19
BEATRICE       PTCLDY    32  29  89 SW10      30.03F WCI  24
FALLS CITY     CLEAR     28  25  88 S5        30.06F WCI  23
NEBRASKA CITY  CLEAR     28  27  99 SW9       30.02F WCI  19
PLATTSMOUTH    CLEAR     29  26  90 S8        30.00F WCI  21
$$

NEZ044-045-051>053-067-261000-
OMAHA AREA

CITY           SKY/WX    TMP DP  RH WIND       PRES   REMARKS
OMAHA EPPLEY   CLEAR     28  26  92 S9        30.00F WCI  19
BLAIR          CLEAR     31  29  94 S9        29.97F WCI  23
FREMONT        CLEAR     33  30  89 S7        29.97F WCI  26
MILLARD        CLEAR     27  26  94 CALM      30.00F FOG
OFFUTT AFB     CLEAR     24  22  94 SE3       29.99F
PLATTSMOUTH    CLEAR     29  26  90 S8        30.00F WCI  21
WAHOO          FAIR      32  28  86 SW7       29.98F WCI  25
$$



USA.gov is the U.S. government's official web portal to all federal, state and local government web resources and services.